Tracking 29594 objects as of 20-Sep-2024
HD Live streaming from Space Station
objects crossing your sky now

THOR ABLESTAR DEB

Track THOR ABLESTAR DEB now!
10-day predictions


NORAD ID: 48816
Int'l Code: 1961-015MU
Perigee: 798.7 km
Apogee: 957.9 km
Inclination: 66.8 °
Period: 102.4 minutes
Semi major axis: 7249 km
RCS: Unknown
Launch date: June 29, 1961
Source: United States (US)
Launch site: AIR FORCE EASTERN TEST RANGE (AFETR)

Note: This is SATELLITE DEBRIS
Your satellite tracking list
Your tracking list is empty




NASA's NSSDC Master Catalog

Two Line Element Set (TLE):
1 48816U 61015MU  24260.16431345  .00002566  00000-0  15107-2 0  9996
2 48816  66.8068  67.1168 0109818 289.7673  69.1598 14.06553742555887
Source of the keplerian elements: AFSPC